ARIANE 5 R/B

Satellite information

Favourite Embed

Satellite Type and Status

ROCKET BODYIN ORBIT

Key statistics

Satellite ARIANE 5 R/B at a glance.

Uptime

3449

Days in orbit

Revolutions

≈ 2.4

Per day

Orbit

MEO

Medium Earth Orbit

Inclination

0.6

Latest

Satellite identification and parameters

Extended collection of information and parameters for ARIANE 5 R/B.

Object identification

Identified? True

Debris? False

Object name: ARIANE 5 R/B

International designator: 2016-004B

Object number (NORAD): 41309

Object ID (CCSDS): 41309

Country: FRANCE (FR)

Current information (Y/N): Y

RCS size: LARGE

Orbital parameters

Period: 604.88 minutes

Inclination: 0.5882 deg

SMA: 23692.238 km

Apoapsis: 34351.026 km

Periapsis: 277.181 km

RAAN: 256.8729 deg

Eccentricy: 0.719093

Argument of periapsis: 235.8806 deg

Mean anomaly: 315.5727 deg

Mean motion: 2.38063944 rev/day

Mean motion (dot): 0.00002515 rev/day2

B* drag term: 0.0012025 1/REarth

Two-line elements (TLE)

Creation date: July 6, 2025, 6:05 p.m.

Reference frame: TEME

Reference center: EARTH

Epoch: July 6, 2025, 7:15 a.m. UTC

TLE line 0: 0 ARIANE 5 R/B

TLE line 1: 1 41309U 16004B 25187.30210003 .00002515 00000-0 12025-2 0 9995

TLE line 2: 2 41309 0.5882 256.8729 7190930 235.8806 315.5727 2.38063944 80313

Live tracking on map

Real-time ground track for satellite ARIANE 5 R/B.

In-orbit conjunctions

A list of the most updated potential collisions computed for object ARIANE 5 R/B.

Target Orbit TCA Probability of collision Miss distance Type
ARIANE 44L+ DEB GTO 2024-10-19 04:17:31 TBA 4141.0 (m) DEBRIS

Associated space launch

Covering North and South America Intelsat 29e will provide high bandwidth C and Ku-Band services for fixed and mobile customers. The satellite will be located at 50 degrees west in a geostationary orbit for its operational lifespan of 15 years. With over 3000kg of propellant the craft will weigh 6300kg when launched and will have 2 solar arrays to provide power. Intelsat 29e will launch on the Ariane 5 on its own, as no suitable secondary payload could be found

ARIANE 5 R/B was lifted into orbit during the mission ‘Ariane 5 ECA | Intelsat 29e’, on board a Ariane 5 ECA space rocket.

The launch took place on Jan. 27, 2016, 11:20 p.m. from Ariane Launch Area 3.

For more information about the launch, click the button.

Launch to space Ariane 5 ECA | Intelsat 29e
Ariane 5 ECA | Intelsat 29e

Agency: N/A

Status: Launch Successful

Launch date: Jan. 27, 2016, 11:20 p.m. UTC

Rocket: Ariane 5 ECA

Launch pad: Ariane Launch Area 3

Location: Guiana Space Centre, French Guiana

...

Latest news about this satellite

There are no fresh news available about this satellite. Check back as we update our databases every day.


Newsletter sign-up

Weekly statistics, charts and insights to help you stay on top of the space industry.